Date,TemperatureHighF,TemperatureAvgF,TemperatureLowF,DewpointHighF,DewpointAvgF,DewpointLowF,HumidityHigh,HumidityAvg,HumidityLow,PressureMaxIn,PressureMinIn,WindSpeedMaxMPH,WindSpeedAvgMPH,GustSpeedMaxMPH,PrecipitationSumIn
2013-4-1,57,50,45,52,45,34,100,84,58,30.02,29.89,13,3,0,0.00
2013-4-2,57,46,37,34,25,14,69,46,19,30.12,30.00,9,2,0,0.00
2013-4-3,61,49,37,30,24,19,52,38,22,30.19,30.09,8,2,0,0.00
2013-4-4,46,38,34,36,33,25,100,86,42,30.17,29.92,10,2,22,0.00
2013-4-5,59,46,36,48,39,32,100,79,35,30.08,29.90,8,2,0,0.00
2013-4-6,64,50,36,41,35,32,93,59,29,30.19,30.08,13,3,21,0.00
2013-4-7,64,55,43,45,38,34,75,54,42,30.19,30.11,12,4,16,0.00
2013-4-8,70,58,48,52,47,43,87,68,46,30.16,30.11,13,3,17,0.00
2013-4-9,79,64,52,57,53,48,93,69,44,30.23,30.15,13,2,18,0.00
2013-4-10,82,67,54,61,55,50,100,69,32,30.19,30.03,13,2,20,0.00
2013-4-11,72,66,63,64,58,55,100,78,56,30.03,29.78,14,6,27,0.00
2013-4-12,64,58,52,61,51,37,100,80,47,29.95,29.71,7,3,0,0.00
2013-4-13,70,56,45,43,36,32,75,50,26,30.07,29.95,7,3,0,0.00
2013-4-14,63,53,43,48,41,34,87,63,39,30.09,30.00,15,5,27,0.00
2013-4-15,75,58,48,61,53,48,100,86,50,30.21,29.98,15,3,24,0.00
2013-4-16,79,65,57,64,58,54,93,81,54,30.29,30.20,12,2,17,0.00
2013-4-17,79,66,59,66,62,59,100,88,61,30.28,30.16,7,0,0,0.00
2013-4-18,70,65,59,63,60,57,100,87,64,30.16,29.99,20,8,31,0.00
2013-4-19,64,59,41,64,56,34,100,91,70,29.99,29.81,22,10,39,0.00
2013-4-20,57,45,36,34,28,21,80,53,30,30.24,29.99,12,4,16,0.00
2013-4-21,61,47,36,36,32,28,80,57,36,30.34,30.24,10,3,21,0.00
2013-4-22,64,52,41,45,39,36,86,63,39,30.33,30.16,10,3,16,0.00
2013-4-23,72,55,39,45,39,32,75,56,30,30.23,30.09,10,2,16,0.00
2013-4-24,66,57,50,57,50,45,93,78,63,30.15,30.08,14,3,29,0.00
2013-4-25,66,51,41,52,37,19,100,69,17,30.31,30.12,9,3,0,0.00
2013-4-26,66,54,37,39,33,28,75,48,27,30.36,30.27,9,2,0,0.00
2013-4-27,57,50,46,50,46,37,100,90,47,30.35,30.21,9,1,0,0.00
2013-4-28,52,50,48,52,50,48,100,99,93,30.21,30.02,8,2,0,0.00
2013-4-29,72,60,50,61,52,48,100,79,46,30.06,29.97,5,1,0,0.00
2013-4-30,73,61,50,57,54,50,100,80,46,30.18,30.02,10,-52,21,0.00